Regional Weather Roundup
Issued by NWS

Home | Current Version | Previous Version | Graphics & Text | Print | Product List | Glossary On
Versions: 1 2 3 4 5 6 7 8 9 10 11 12 13 14 15 16 17 18 19 20 21 22 23 24 25 26 27 28 29 30 31 32 33 34 35 36 37 38 39 40 41 42 43 44 45 46 47 48 49 50
000
ASUS43 KMPX 200710
RWRMN
WEATHER ROUNDUP FOR MINNESOTA
NATIONAL WEATHER SERVICE TWIN CITIES/CHANHASSEN MN
100 AM CST FRI JAN 20 2017


NOTE: "FAIR" INDICATES FEW OR NO CLOUDS BELOW 12,000 FEET WITH NO
SIGNIFICANT WEATHER AND/OR OBSTRUCTIONS TO VISIBILITY. N/A MEANS
CURRENT SKY AND/OR WEATHER CONDITIONS ARE NOT AVAILABLE.

MNZ060>063-068>070-200800-
   Twin Cities Metro

CITY           SKY/WX    TMP DP  RH WIND       PRES   REMARKS
TWIN CITIES    DRIZZLE   35  33  92 SE10      29.66F FOG     WCI  27
ST PAUL        LGT RAIN  35  35 100 SE6       29.68S FOG     WCI  30
CRYSTAL        CLOUDY    36  33  89 SE6       29.64F FOG
BLAINE         DRIZZLE   37  37 100 SE5       29.65F
LAKEVILLE      DRIZZLE   32  32 100 E5        29.65F WCI  27
EDEN PRAIRIE   CLOUDY    36  33  89 E8        29.64S FOG
SOUTH ST PAUL  LGT RAIN  36  35  97 SE5       29.67S
LAKE ELMO      MIX PCPN  36  36 100 SE6       29.67F
$$
MNZ001>005-007-008-013>017-022>024-027-028-200800-
   Northwest Minnesota

CITY           SKY/WX    TMP DP  RH WIND       PRES   REMARKS
BEMIDJI        CLOUDY    33  33 100 S9        29.59S FOG     WCI  26
HALLOCK        FOG       34  34 100 S13       29.54S VSB 3/4 WCI  25
ROSEAU         HAZE      36  30  80 SW12      29.57S VSB 1
WARROAD        FOG       36  30  80 S8        29.57S VSB 1
THIEF RVR FALL CLOUDY    34  34 100 S16       29.57F FOG     WCI  24
CROOKSTON      CLOUDY    34  34 100 S15       29.56F FOG     WCI  24
FOSSTON        FOG       34  32  93 S12       29.58S VSB 1   WCI  25
DETROIT LAKES  FOG       34  34 100 S8        29.59R VSB 3/4 WCI  27
MOORHEAD       CLOUDY    36  34  93 S9        29.57S FOG
PARK RAPIDS    FOG       34  32  92 S6        29.60R VSB 1/4 WCI  29
MAHNOMEN       CLOUDY    34  33  99 S9        29.57F FOG     WCI  26
$$
MNZ006-009>011-018-025>026-200800-
   North Central Minnesota

CITY           SKY/WX    TMP DP  RH WIND       PRES   REMARKS
BAUDETTE       FOG       36  36 100 S8        29.57S VSB 3/4
FLAG ISLAND    CLOUDY    27  27 100 S7        29.56S FOG     WCI  19
INTL FALLS     MOCLDY    36  34  92 VRB3      29.60S FOG
WASKISH        CLOUDY    37  37 100 S7        29.59R FOG
BIG FORK         N/A     32  30  93 CALM      29.61F FOG
LONGVILLE      CLOUDY    30  30 100 CALM      29.60F FOG
GRAND RAPIDS   CLEAR     30  29  96 SE5       29.64F FOG     WCI  25
CRANE LAKE     FOG       25  25 100 CALM      29.65F VSB 1/4
ORR              N/A     30  28  93 CALM      29.60F FOG
COOK           CLEAR     32  30  93 CALM      29.64S
WALKER         CLOUDY    34  33  97 S5        29.61R FOG     WCI  30
$$
MNZ012-019>021-037-200800-
   Northeast Minnesota

CITY           SKY/WX    TMP DP  RH WIND       PRES   REMARKS
DULUTH         CLOUDY    35  33  92 SE6       29.65F WCI  30
ELY            CLEAR     30  30 100 S5        29.65R WCI  25
HIBBING        FOG       21  21 100 CALM      29.64S VSB 1/4
EVELETH        CLEAR     20  19  94 CALM      29.66R FOG
DULUTH HARBOR  CLOUDY    34  32  93 CALM      29.69F FOG
TWO HARBORS    MOCLDY    30  25  80 CALM      29.66F HAZE
SILVER BAY     FOG       25  25 100 CALM      29.67S VSB 1/2
GRAND MARAIS     N/A     28  27  96 N3        29.72R
G MARAIS ARPRT CLEAR     27  25  93 SE5       29.69R FOG     WCI  21
$$
MNZ029>031-032-039>041-046>048-054>057-064-200800-
   West Central Minnesota

CITY           SKY/WX    TMP DP  RH WIND       PRES   REMARKS
FERGUS FALLS   FOG       36  36 100 S10       29.62S VSB 3/4
WHEATON        CLOUDY    41  41 100 SE9       29.58F FOG
MORRIS         FOG       34  34 100 SE7       29.58F VSB 1/4 WCI  28
ALEXANDRIA     FOG       33  33 100 SE7       29.60F VSB 1/2 WCI  27
ELBOW LAKE     LGT SNOW  34  34 100 E7        29.59S VSB 3/4 WCI  28
WADENA         FOG       34  34 100 CALM      29.60S VSB<1/4
GLENWOOD       FOG       34  34 100 SE6       29.60F VSB 1/2 WCI  29
APPLETON       FOG       36  34  93 SE7       29.59S VSB 3/4
BENSON         CLOUDY    36  34  93 S8          N/A
ORTONVILLE     CLOUDY    34  32  93 SE8       29.57F FOG     WCI  27
MADISON        FOG       36  36 100 SE8       29.57F VSB 1/2
WILLMAR        FOG       36  36 100 SE9       29.61F VSB 1
$$
MNZ033>034-036-042>043-049>051-058-059-200800-
   Central Minnesota

CITY           SKY/WX    TMP DP  RH WIND       PRES   REMARKS
ST CLOUD       CLOUDY    34  34 100 SE8       29.63F FOG     WCI  27
SAUK CENTRE    CLOUDY    33  33  99 E3        29.60F FOG
PAYNESVILLE    FOG       34  34 100 E6        29.62F VSB 1   WCI  29
AITKIN         CLEAR     36  28  75 SE6       29.61S
PINE RIVER     CLOUDY    32  32 100 CALM      29.64F FOG
BRAINERD       MOCLDY    34  32  92 S5        29.61F FOG     WCI  30
STAPLES          N/A     34  34 100 CALM      29.60F FOG
LONG PRAIRIE   CLOUDY    32  32 100 E7        29.61S FOG     WCI  26
LITTLE FALLS   CLOUDY    34  32  93 SE8       29.62F FOG     WCI  27
LITCHFIELD     FOG       36  34  93 SE8       29.62F VSB 1/2
BUFFALO        FOG       34  32  94 E3        29.65F VSB 1
MAPLE LAKE     FOG       35  35  99 MISG      29.65S VSB 1
HUTCHINSON     RAIN      34  34 100 E6        29.63F VSB 1   WCI  29
$$
MNZ037-044-045-052-053-200800-
   East Central Minnesota

CITY           SKY/WX    TMP DP  RH WIND       PRES   REMARKS
PRINCETON      LGT RAIN  36  34  93 E5        29.65F
MORA           CLOUDY    34  30  86 SE3       29.68S
CAMBRIDGE      CLOUDY    37  32  81 E5        29.64F
RUSH CITY      DRIZZLE   34  34 100 CALM      29.67F
MOOSE LAKE     CLOUDY    36  32  87 SE3       29.65F
HINCKLEY       DRIZZLE   36  34  93 SE3       29.67S
CLOQUET        CLOUDY    32  30  93 SE3       29.66S FOG
MCGREGOR       CLOUDY    36  32  87 SE7       29.63F
$$
MNZ071>073-080-081-089-090-097-098-200800-
   Southwest Minnesota

CITY           SKY/WX    TMP DP  RH WIND       PRES   REMARKS
MONTEVIDEO     FOG       34  34 100 SE6       29.60F VSB 1/2 WCI  29
GRANITE FALLS  FOG       35  34  98 E6        29.60F VSB 1   WCI  30
CANBY          FOG       34  34  99 CALM      29.57F VSB 1/4
MARSHALL       FOG       34  34 100 SE6       29.58F VSB 1   WCI  29
REDWOOD FALLS  FOG       34  33  96 E6        29.60S VSB 1/4 WCI  29
OLIVIA         FOG       34  32  93 SE7       29.60S VSB 1/2 WCI  28
PIPESTONE      CLOUDY    37  36  93 S7        29.55F FOG
WINDOM         FOG       34  34 100 SE3       29.58F VSB 1/4
WORTHINGTON    FOG       34  34 100 S6        29.58F VSB 3/4 WCI  29
JACKSON        FOG       32  32 100 S3        29.59F VSB 1/2
TRACY          FOG       35  35  99 SE3       29.57F VSB 1/2
SLAYTON        FOG       34  34 100 SW7       29.57F VSB 1/2 WCI  27
$$
MNZ065>067-074>077-082>085-091>093-200800-
   South Central Minnesota

CITY           SKY/WX    TMP DP  RH WIND       PRES   REMARKS
MANKATO        LGT RAIN  34  33  96 E8        29.62F VSB 1   WCI  27
NEW ULM        DRZL/FOG  34  34 100 SE5       29.61F VSB 3/4 WCI  30
ST JAMES       FOG       34  34 100 SE3       29.61F VSB 1
FAIRMONT       FOG       33  33 100 S5        29.59F VSB 1/4 WCI  29
GLENCOE        FOG       35  35 100 E6        29.62F VSB 1   WCI  30
FARIBAULT      DRIZZLE   36  34  93 E8        29.64F
OWATONNA       DRIZZLE   36  34  93 E7        29.63F
WASECA         DRIZZLE   34  34 100 E9        29.63F WCI  26
ALBERT LEA     MIX PCPN  34  34 100 SE6       29.62S VSB 1/2 WCI  29
$$
MNZ078>079-086>088-094>096-200800-
   Southeast Minnesota

CITY           SKY/WX    TMP DP  RH WIND       PRES   REMARKS
ROCHESTER      CLOUDY    33  33 100 SE9       29.64F FOG     WCI  25
RED WING       LGT SNOW  36  34  93 SE7       29.67F
STANTON        LGT RAIN  37  34  90 E6        29.63F
DODGE CENTER   FOG       34  34 100 CALM      29.63F VSB 1
WINONA         CLOUDY    36  34  93 SE5       29.69F FOG
AUSTIN         RAIN      34  32  93 E7        29.63F VSB 1   WCI  28
PRESTON        FOG       33  32  96 SE7       29.65F VSB 3/4 WCI  27
$$
ABBREVIATIONS USED IN REMARKS
   TC - TEMPERATURES IN CELSIUS
  WCI - WIND CHILL INDEX
   HX - HEAT INDEX
  VSB - VISIBILITY
$$




USA.gov is the U.S. government's official web portal to all federal, state and local government web resources and services.